Miscellaneous Local Product
Issued by NWS North Platte, NE

Home | Current Version | Previous Version | Text Only | Print | Product List | Glossary On
Versions: 1 2 3 4 5 6 7 8 9 10 11 12 13 14 15 16 17 18 19 20 21 22 23 24 25 26 27 28 29 30 31 32 33 34 35 36 37 38 39 40 41 42 43 44 45 46 47 48 49 50
000
AXUS43 KLBF 210410
MISLBF


WESTERN AND NORTH CENTRAL NEBRASKA HOURLY WEATHER ROUNDUP
NATIONAL WEATHER SERVICE NORTH PLATTE NE
1000 PM CST SAT DEC 20 2014

***STATIONS NOT REPORTING VARIABLES SUCH AS SKY/WEATHER OR
PRESSURE ARE PROVIDED BY THE NEBRASKA DEPARTMENT OF
ROADS...RAWS...AND APRS NETWORKS...AND ARE NOT UNDER
NATIONAL WEATHER SERVICE QUALITY CONTROL***

...OBSERVATIONS IN AND NEAR THE EASTERN PANHANDLE OF NEBRASKA...

CITY           SKY/WX    TMP DP  RH WIND       PRES   REMARKS
PINE RIDGE     MOCLDY    27  23  85 CALM      29.85F
CHADRON        CLOUDY    28  23  81 W5        29.87F WCI  23
ALLIANCE       MOCLDY    20  19  96 S6        29.89F WCI  12
SIDNEY         CLOUDY    32  24  72 W5        29.92F WCI  27
WHITECLAY        N/A     27  23  86 SE6         N/A  WCI  20
CRESCENT LAKE    N/A     32  27  81 SW5         N/A  WCI  27
LISCO            N/A     25  20  82 CALM        N/A
BIG SPRINGS      N/A     30  27  88 W8          N/A  WCI  22
$$

...OBSERVATIONS IN NORTH CENTRAL NEBRASKA...

CITY           SKY/WX    TMP DP  RH WIND       PRES   REMARKS
VALENTINE      CLOUDY    32  27  81 W6        29.89F WCI  26
THEDFORD       CLEAR     28  26  92 W3        29.91S
AINSWORTH      MOCLDY    27  24  88 W7        29.89F WCI  19
O`NEILL        FOG       32  32 100 S5        29.92S VSB 3/4 WCI  27
BROKEN BOW     CLEAR     29  26  89 CALM      29.92S
BROWNLEE         N/A     30  24  81 W3          N/A
SPRINGVIEW       N/A     24  22  92 CALM        N/A
BREWSTER         N/A     29  28  96 CALM        N/A
ROSE             N/A     30  30 100 SE3         N/A
SARGENT          N/A     21  20  96 CALM        N/A
COMSTOCK         N/A     36  33  90 W3          N/A
CHAMBERS         N/A     30  30  99 CALM        N/A
EWING            N/A     31  32 100 CALM        N/A
$$

...OBSERVATIONS IN SOUTHWEST NEBRASKA AND FAR NORTHEAST COLORADO...

CITY           SKY/WX    TMP DP  RH WIND       PRES   REMARKS
WRAY           FAIR      30  26  86 NW6       29.95S WCI  24
HOLYOKE        FAIR      34  30  86 W7        29.94S WCI  28
IMPERIAL       PTCLDY    31  25  78 W5        29.93F WCI  26
OGALLALA       CLOUDY    26  24  92 W6        29.92F WCI  20
NORTH PLATTE   CLEAR     22  20  92 NW7       29.93F WCI  13
MCCOOK         PTCLDY    30  26  85 W5        29.93F WCI  25
LEXINGTON      CLEAR     29  26  89 N6        29.93S WCI  23
PAXTON           N/A     28  26  90 CALM        N/A
BRADY            N/A     25  22  87 CALM        N/A
GOTHENBURG       N/A     29  24  82 CALM        N/A
CALLAWAY         N/A     34  30  85 W12         N/A  WCI  25
$$

...NORTH PLATTE AREA...

CITY           SKY/WX    TMP DP  RH WIND       PRES   REMARKS
AIRPORT        CLEAR     22  20  92 NW7       29.93F WCI  13
DOWNTOWN         N/A     28  26  90 CALM        N/A
$$

...SOME WEATHER OBSERVATIONS FROM AROUND THE REGION...

CITY           SKY/WX    TMP DP  RH WIND       PRES   REMARKS
DENVER         CLOUDY    37  24  59 S10       29.93S WCI  30
LARAMIE        MOCLDY    26  19  74 SW13      29.91S WCI  15
CHEYENNE       CLOUDY    33  16  49 SW8       29.91F WCI  26
SCOTTSBLUFF    CLOUDY    27  22  81 CALM      29.90F
RAPID CITY     CLOUDY    35  26  69 CALM      29.81F
PIERRE         CLOUDY    20  18  92 CALM      29.86F FOG
WINNER         CLOUDY    34  26  72 SW7       29.89S WCI  28
SIOUX FALLS    FOG       30  29  96 S13       29.98S VSB 1   WCI  20
OMAHA          CLOUDY    34  33  96 SE9       30.04F FOG     WCI  27
GRAND ISLAND   PTCLDY    28  26  92 S5        29.95F FOG     WCI  23
KANSAS CITY    CLOUDY    35  33  92 S9        30.12S WCI  28
WICHITA        CLOUDY    43  37  79 S14       30.09F
HAYS           MOCLDY    34  27  75 CALM      30.00S
LIBERAL        CLEAR     34  28  80 S7        30.00F WCI  28
GOODLAND       CLOUDY    34  29  82 S10       29.93F WCI  26
$$



USA.gov is the U.S. government's official web portal to all federal, state and local government web resources and services.